Location: Peralejo
(40.5415°N, 4.1259°W)
Time: 05:23:31
(UTC+00:00)

Tiangong - Visible Passes

Search period start: 16 July 2024 00:00
Search period end: 26 July 2024 00:00
Orbit: 373 x 378 km, 41.5° (Epoch: 14 July)

Date Brightness Start Highest point End Pass type
(mag) Time Alt. Az. Time Alt. Az. Time Alt. Az.
16 Jul -2.2 02:55:04 68° SE 02:55:04 68° SE 02:57:59 10° E visible
17 Jul 0.9 01:55:11 10° E 01:55:11 10° E 01:55:14 10° E visible
17 Jul -2.1 03:27:11 25° W 03:28:49 74° N 03:31:55 10° E visible
18 Jul -0.7 02:27:16 33° E 02:27:16 33° E 02:29:06 10° E visible
18 Jul -2.1 03:59:36 10° W 04:02:43 77° N 04:05:48 10° E visible
19 Jul -2.1 02:59:22 59° NW 02:59:48 71° N 03:02:54 10° E visible
20 Jul 0.8 01:59:32 13° E 01:59:32 13° E 01:59:55 10° E visible
20 Jul -2.3 03:31:33 21° W 03:33:30 90° SSE 03:36:36 10° ESE visible
21 Jul -0.5 02:31:51 29° E 02:31:51 29° E 02:33:33 10° E visible
21 Jul -1.9 04:04:01 10° W 04:07:00 44° SSW 04:09:58 10° SE visible
22 Jul -1.9 03:04:27 55° SE 03:04:27 55° SE 03:07:01 10° ESE visible
23 Jul -1.3 03:37:27 30° SSW 03:37:27 30° SSW 03:39:57 10° SE visible
24 Jul 0.1 04:10:57 11° SSW 04:10:57 11° SSW 04:11:15 10° SSW visible
25 Jul -0.8 21:11:26 10° SW 21:13:10 24° SSW 21:13:10 24° SSW visible
